This demonstration page uses our WeatherBlox Daily Observations layout. Learn more.

Left ArrowRight Arrow

41.86663, -103.66717

Hourly Observations for February 13, 2016

Temp ( °F °C ) Dew Point ( °F °C ) Humidity (%) Winds ( mph kmh ) Pressure ( in mb ) Visibility ( mi km ) Precip ( " mm )
12:53 am 00:53 Cloudy 33 0.6 30 -1.1 89 89 SE 12 19 30.24 1024 10 16 N/A
1:53 am 01:53 Cloudy 33 0.6 30 -1.1 89 89 SSE 13 20 30.21 1023 10 16 N/A
2:50 am 02:50 Cloudy 34 1 30 -1 87 87 SE 10 17 30.24 1024 10 16 N/A
2:53 am 02:53 Cloudy 33 0.6 30 -1.1 89 89 SE 12 19 30.19 1022 10 16 N/A
3:31 am 03:31 Partly Cloudy 32 undefined 29 -1.7 88 88 SE 10 17 30.24 1024 10 16 N/A
3:53 am 03:53 Clear 31 -0.6 29 -1.7 92 92 SE 10 17 30.17 1022 10 16 N/A
4:53 am 04:53 Clear 30 -1.1 28 -2.2 92 92 ESE 9 15 30.16 1021 10 16 N/A
5:53 am 05:53 Clear 30 -1.1 28 -2.2 92 92 ESE 8 13 30.14 1021 10 16 N/A
6:53 am 06:53 Sunny 30 -1.1 28 -2.2 92 92 SE 9 15 30.14 1021 9 14 N/A
7:53 am 07:53 Sunny 32 undefined 30 -1.1 92 92 ESE 8 13 30.12 1020 7 11 N/A
8:53 am 08:53 Sunny 33 0.6 30 -1.1 89 89 SE 9 15 30.10 1019 10 16 N/A
9:53 am 09:53 Sunny 36 2.2 32 undefined 86 86 SE 9 15 30.07 1018 10 16 N/A
10:53 am 10:53 Sunny 39 3.9 32 undefined 76 76 SE 5 7 30.04 1017 10 16 N/A
11:53 am 11:53 Sunny 42 5.6 32 undefined 68 68 SSE 8 13 29.99 1016 10 16 N/A
12:53 pm 12:53 Sunny 47 8.3 32 undefined 56 56 ESE 9 15 29.92 1013 10 16 N/A
1:53 pm 13:53 Sunny 51 10.6 32 undefined 48 48 N N/A 29.88 1012 10 16 N/A
2:53 pm 14:53 Sunny 58 14.4 23 -5 26 26 W 21 33 29.83 1010 10 16 N/A
3:53 pm 15:53 Sunny 57 13.9 23 -5 27 27 W 13 20 29.82 1010 10 16 N/A
4:53 pm 16:53 Sunny 58 14.4 16 -8.9 19 19 W 23 37 29.80 1009 10 16 N/A
5:53 pm 17:53 Clear 54 12.2 20 -6.7 26 26 WNW 28 44 29.83 1010 10 16 N/A
6:37 pm 18:37 Mostly Clear 42 5.6 30 -1.1 62 62 NNW 35 56 29.94 1014 10 16 N/A
6:53 pm 18:53 Mostly Clear 40 4.4 30 -1.1 68 68 NNW 33 54 30.01 1016 10 16 N/A
7:16 pm 19:16 Mostly Cloudy with Light Rain 39 4 30 -1 70 70 NNW 26 43 30.03 1017 10 16 N/A
7:23 pm 19:23 Mostly Cloudy with Light Rain 39 3.9 31 -0.6 73 73 NNW 25 41 30.03 1017 10 16 N/A
7:53 pm 19:53 Cloudy 37 2.8 30 -1.1 76 76 WNW 17 28 30.05 1018 10 16 N/A
8:53 pm 20:53 Partly Cloudy 36 2.2 29 -1.7 76 76 W 13 20 30.06 1018 10 16 0.01 0.25
9:53 pm 21:53 Clear 33 0.6 27 -2.8 78 78 WNW 12 19 30.08 1019 10 16 N/A
10:53 pm 22:53 Clear 31 -0.6 28 -2.2 89 89 WNW 7 11 30.09 1019 10 16 N/A
11:53 pm 23:53 Clear 34 1.1 27 -2.8 76 76 NW 16 26 30.06 1018 10 16 N/A

Powered by AerisWeather